This demonstration page uses our WeatherBlox Daily Observations layout. Learn more.

Left ArrowRight Arrow

44.8408, -93.29828

Hourly Observations for November 19, 2019

Temp ( °F °C ) Dew Point ( °F °C ) Humidity (%) Winds ( mph kmh ) Pressure ( in mb ) Visibility ( mi km ) Precip ( " mm )
12:53 am 00:53 Cloudy with Light Rain 34 1.1 32 0 92 92 SSE 3 6 29.71 1006 4 6 0.05 1.27
1:01 am 01:01 Cloudy with Light Rain 34 1.1 32 0 92 92 SE 5 7 29.73 1007 4 6 0.02 0.51
1:12 am 01:12 Cloudy with Rain 34 1.1 31 -0.6 89 89 SE 7 11 29.72 1006 4 6 0.03 0.76
1:25 am 01:25 Cloudy with Light Rain 34 1.1 32 0 92 92 SE 6 9 29.72 1006 4 6 0.05 1.27
1:53 am 01:53 Cloudy with Light Rain 34 1.1 32 0 92 92 SE 3 6 29.70 1006 5 8 0.06 1.52
2:15 am 02:15 Cloudy with Light Rain 34 1.1 32 0 92 92 SE 3 6 29.72 1006 4 6 0.02 0.51
2:53 am 02:53 Cloudy with Light Rain 34 1.1 32 0 92 92 SE 3 6 29.70 1006 5 8 0.04 1.02
3:53 am 03:53 Cloudy with Mist and Fog 34 1.1 32 0 92 92 SSE 5 7 29.71 1006 4 6 0.00 0.00
4:53 am 04:53 Cloudy with Mist and Fog 34 1.1 33 0.6 97 97 Calm 29.72 1006 4 6 0.00 0.00
5:02 am 05:02 Cloudy with Mist and Fog 35 1.7 33 0.6 93 93 Calm 29.74 1007 4 6 0.00 0.00
5:53 am 05:53 Cloudy with Mist and Fog 35 1.7 34 1.1 96 96 SSE 3 6 29.72 1006 4 6 0.00 0.00
6:15 am 06:15 Cloudy with Mist and Fog 36 2.2 34 1.1 93 93 Calm 29.74 1007 1 2 0.00 0.00
6:26 am 06:26 Cloudy with Mist and Fog 36 2.2 34 1.1 93 93 Calm 29.74 1007 1 1 0.00 0.00
6:40 am 06:40 Mostly Cloudy with Fog 36 2.2 35 1.7 97 97 WSW 3 6 29.75 1007 1 1 0.00 0.00
6:53 am 06:53 Cloudy with Mist and Fog 36 2.2 35 1.7 97 97 Calm 29.73 1007 1 1 0.00 0.00
7:17 am 07:17 Cloudy with Mist and Fog 36 2.2 35 1.7 97 97 W 3 6 29.76 1008 1 2 0.00 0.00
7:53 am 07:53 Cloudy with Mist and Fog 37 2.8 35 1.7 93 93 WSW 6 9 29.75 1007 1 2 0.00 0.00
8:29 am 08:29 Cloudy with Mist and Fog 37 2.8 36 2.2 96 96 Calm 29.78 1008 1 1 0.00 0.00
8:53 am 08:53 Cloudy with Mist and Fog 38 3.3 36 2.2 93 93 W 5 7 29.77 1008 1 2 0.00 0.00
9:20 am 09:20 Cloudy with Mist and Fog 39 3.9 36 2.2 89 89 W 7 11 29.79 1009 2 3 0.00 0.00
9:43 am 09:43 Cloudy with Mist and Fog 39 3.9 37 2.8 93 93 W 6 9 29.80 1009 1 2 0.00 0.00
9:53 am 09:53 Cloudy with Mist and Fog 38 3.3 37 2.8 97 97 W 5 7 29.79 1009 1 2 0.00 0.00
10:00 am 10:00 Cloudy with Mist and Fog 39 3.9 37 2.8 93 93 W 6 9 29.80 1009 1 1 0.00 0.00
10:24 am 10:24 Cloudy with Mist and Fog 39 3.9 37 2.8 93 93 W 6 9 29.81 1010 2 3 0.00 0.00
10:36 am 10:36 Cloudy with Mist and Fog 39 3.9 37 2.8 93 93 W 5 7 29.81 1010 5 8 0.00 0.00
10:53 am 10:53 Cloudy with Mist and Fog 40 4.4 37 2.8 89 89 W 5 7 29.81 1009 5 8 0.00 0.00
11:53 am 11:53 Cloudy 40 4.4 37 2.8 89 89 W 8 13 29.81 1010 7 11 0.00 0.00
12:53 pm 12:53 Cloudy 40 4.4 37 2.8 89 89 WNW 8 13 29.83 1010 9 14 0.00 0.00
1:53 pm 13:53 Cloudy 41 5 37 2.8 86 86 WSW 5 7 29.85 1011 9 14 0.00 0.00
2:31 pm 14:31 Cloudy 41 5 37 2.8 86 86 W 6 9 29.87 1011 10 16 0.00 0.00
2:53 pm 14:53 Cloudy 42 5.6 37 2.8 82 82 W 6 9 29.87 1012 10 16 0.00 0.00
3:22 pm 15:22 Cloudy 42 5.6 37 2.8 82 82 WSW 5 7 29.88 1012 10 16 0.00 0.00
3:53 pm 15:53 Cloudy 42 5.6 37 2.8 82 82 SW 3 6 29.88 1012 10 16 0.00 0.00
4:07 pm 16:07 Cloudy 42 5.6 37 2.8 82 82 SSW 3 6 29.90 1012 10 16 0.00 0.00
4:53 pm 16:53 Cloudy 42 5.6 38 3.3 85 85 Calm 29.88 1012 10 16 0.00 0.00
5:53 pm 17:53 Cloudy 42 5.6 37 2.8 82 82 WSW 3 6 29.91 1013 10 16 0.00 0.00
6:53 pm 18:53 Cloudy 42 5.6 37 2.8 82 82 NW 7 11 29.93 1013 10 16 0.00 0.00
7:53 pm 19:53 Cloudy 41 5 36 2.2 82 82 WNW 6 9 29.95 1014 10 16 0.00 0.00
8:33 pm 20:33 Cloudy 41 5 36 2.2 82 82 WNW 7 11 29.98 1015 10 16 0.00 0.00
8:53 pm 20:53 Cloudy 41 5 36 2.2 82 82 NW 6 9 29.97 1015 10 16 0.00 0.00
9:30 pm 21:30 Cloudy 40 4.4 36 2.2 86 86 NW 5 7 29.99 1016 10 16 0.00 0.00
9:53 pm 21:53 Cloudy 40 4.4 36 2.2 86 86 NW 5 7 29.99 1016 10 16 0.00 0.00
10:53 pm 22:53 Cloudy 40 4.4 36 2.2 86 86 Calm 29.99 1016 10 16 0.00 0.00
11:53 pm 23:53 Cloudy 40 4.4 35 1.7 83 83 Calm 30.01 1016 10 16 0.00 0.00

Powered by AerisWeather